CAPE
4 3 0 0 0 2 49 67 566 708 584 343 251 125 1 0 0 0 0 0 0 0 0 0 0 0 0 0 0 0 0 0
3 2 0 0 0 0 11 14 307 439 345 261 161 0 0 0 0 0 0 0 0 0 0 0 0 0 0 0 0 0 0 0
1 3 2 0 0 0 0 1 89 298 290 161 57 0 0 0 0 0 0 0 0 0 0 0 0 0 0 0 0 0 0 0
1 2 1 1 3 2 0 0 6 106 102 94 24 0 0 0 0 0 0 0 0 0 0 0 0 0 0 0 0 0 0 0
2 1 2 0 1 0 0 0 4 40 63 68 51 2 0 1 0 0 0 0 0 0 0 0 0 0 0 0 0 0 0 0
3 2 1 2 0 0 1 0 1 15 22 26 11 0 0 0 0 0 0 0 0 0 0 0 0 0 0 0 0 0 0 0
2 1 0 0 0 0 0 2 7 0 10 22 0 0 0 0 0 0 0 0 0 0 0 0 0 0 0 0 0 0 0 0
2 1 0 0 0 0 0 0 0 26 40 0 0 0 0 0 0 0 0 0 0 0 0 0 0 0 0 0 0 0 0 0
1 2 0 0 0 0 0 0 0 5 38 19 0 0 0 0 0 0 0 0 0 0 0 0 0 0 0 0 0 0 0 0
1 3 2 0 0 0 4 0 7 14 51 39 14 0 0 0 0 0 0 0 0 0 0 0 0 0 0 0 0 0 0 0
4 1 0 0 0 0 0 0 13 40 64 53 40 5 0 0 0 0 0 0 0 0 0 0 0 0 0 0 0 0 0 0
2 0 0 0 0 0 4 10 28 44 54 81 60 49 11 16 0 0 0 0 0 0 0 0 0 0 0 0 0 0 0 0
1 0 0 0 0 0 5 2 6 10 33 48 71 66 32 19 4 0 0 0 0 0 0 0 0 0 0 0 0 0 0 0
0 0 0 0 0 0 0 0 0 0 0 0 0 0 6 6 0 0 0 0 0 0 0 0 0 0 0 0 0 0 0 0
0 0 0 0 0 0 0 0 0 0 0 0 0 0 0 0 13 3 0 0 0 0 0 0 0 0 0 0 0 0 0 0
0 0 0 0 0 0 0 0 0 0 0 0 0 6 7 12 4 0 0 0 0 0 0 0 0 0 0 0 0 0 0 0
0 0 0 0 0 0 0 0 0 0 0 0 0 0 23 37 48 16 23 5 0 0 0 0 0 0 0 0 0 0 0 0
0 0 0 0 0 0 0 0 0 0 0 0 0 0 14 46 94 96 67 23 4 0 0 0 0 0 0 0 0 0 0 0
0 0 0 0 0 0 0 0 0 0 0 0 0 0 43 90 106 123 70 28 0 0 0 0 0 0 0 0 0 0 0 0
0 0 0 0 0 0 0 2 0 0 0 0 0 0 6 45 95 75 43 4 0 0 0 0 0 0 0 0 0 0 0 0
CIN
-56 -47 0 0 0 0 -19 -24 0 0 0 0 0 -9 -4 0 0 0 0 0 0 0 0 0 0 0 0 0 0 0 0 0
0 0 0 0 0 0 -6 -2 -5 -2 -10 -1 -4 0 0 0 0 0 0 0 0 0 0 0 0 0 0 0 0 0 0 0
0 0 0 0 0 0 0 -21 -7 -6 -3 -23 -57 0 0 0 0 0 0 0 0 0 0 0 0 0 0 0 0 0 0 0
0 0 0 0 0 0 0 0 -15 -62 -76 -90 -107 0 0 0 0 0 0 0 0 0 0 0 0 0 0 0 0 0 0 0
0 0 0 0 0 0 0 0 -3 -67 -92 -109 -132 -196 0 -290 -55 0 0 0 0 0 0 0 0 0 0 0 0 0 0 0
0 0 0 0 0 0 0 0 -2 -28 -43 -58 -89 0 0 0 0 0 0 0 0 0 0 0 0 0 0 0 0 0 0 0
0 0 0 0 0 0 0 -6 -27 0 -66 -129 0 0 0 0 0 0 0 0 0 0 0 0 0 0 0 0 0 0 0 0
0 0 0 0 0 0 0 0 0 -73 -88 -3 0 0 0 0 0 0 0 0 0 0 0 0 0 0 0 0 0 0 0 0
0 0 0 0 0 0 0 0 0 -81 -75 -128 0 0 0 0 0 0 0 0 0 0 0 0 0 0 0 0 0 0 0 0
0 0 0 0 0 0 -19 0 -60 -89 -76 -90 -144 0 0 0 0 0 0 0 0 0 0 0 0 0 0 0 0 0 0 0
0 0 0 0 0 0 0 0 -43 -72 -64 -86 -104 -98 0 0 0 0 0 0 0 0 0 0 0 0 0 0 0 0 0 0
0 0 0 0 0 0 -36 -49 -50 -53 -50 -48 -64 -83 -103 -147 0 0 0 0 0 0 0 0 0 0 0 0 0 0 0 0
0 0 0 0 0 -14 -43 -60 -56 -51 -52 -55 -62 -78 -111 -130 -192 0 0 0 0 0 0 0 0 0 0 0 0 0 0 0
0 0 0 0 0 0 0 0 0 0 0 0 0 0 -89 -120 0 0 0 0 0 0 0 0 0 0 0 0 0 0 0 0
0 0 0 0 0 0 0 0 0 0 0 0 0 0 0 0 -163 -87 0 0 0 0 0 0 0 0 0 0 0 0 0 0
0 0 0 0 0 0 0 0 0 0 0 0 0 -86 -117 -147 -101 0 0 0 0 0 0 0 0 0 0 0 0 0 0 0
0 0 0 0 0 0 0 0 0 0 0 0 0 0 -146 -133 -136 -164 -157 -179 -9 0 0 0 0 0 0 0 0 0 0 0
0 0 0 0 0 0 0 0 0 0 0 0 0 0 -188 -155 -131 -127 -115 -120 -127 0 -98 0 0 0 0 0 0 0 0 0
0 0 0 0 0 0 0 0 0 0 0 0 0 0 -230 -210 -153 -129 -111 -128 -38 0 0 0 0 0 0 0 0 0 0 0
0 0 0 0 0 0 0 -221 0 0 0 0 0 0 -236 -192 -148 -161 -155 -160 0 0 0 0 0 0 0 0 0 0 0 0
Wind_Speed
6 3 7 13 16 16 20 18 20 20 18 18 18 17 17 17 16 15 15 14 14 14 14 14 15 15 14 16 17 17 18 18
10 8 9 9 10 9 10 20 27 18 19 18 16 16 15 16 15 15 13 14 13 12 13 14 13 16 14 14 15 16 17 18
8 8 11 11 11 12 14 10 17 16 16 16 15 13 12 12 13 12 12 11 12 12 12 13 12 14 12 12 12 14 16 16
8 10 12 13 16 17 14 14 16 13 13 14 12 11 10 11 10 11 10 9 10 10 11 11 11 10 10 10 11 13 14 15
6 8 12 16 22 25 24 14 12 11 13 12 12 10 8 8 8 8 9 8 8 9 10 9 8 8 9 12 13 11 12 13
6 8 13 18 20 28 23 24 35 15 13 12 12 10 10 11 12 9 10 11 7 8 8 7 7 8 10 11 12 12 11 12
8 11 16 17 17 21 27 32 15 19 17 14 15 15 13 12 13 10 8 8 6 5 6 7 7 8 8 9 10 10 11 12
4 9 12 18 16 9 12 13 13 18 18 15 15 13 15 11 11 9 8 5 4 5 6 7 8 8 9 9 10 10 10 10
6 7 10 9 10 13 14 11 11 17 16 16 16 14 12 11 8 9 8 5 8 6 8 8 8 9 8 10 10 9 10 9
2 5 10 12 13 13 9 11 11 12 13 14 13 12 11 9 10 11 4 25 10 5 6 7 8 9 10 9 10 9 9 8
7 16 12 11 9 9 10 10 10 11 11 13 13 11 18 22 24 25 29 11 12 8 4 7 9 13 11 9 8 9 8 7
10 11 13 15 9 12 10 11 9 13 20 31 40 39 36 32 28 23 18 11 8 2 4 9 13 10 10 10 9 8 7 6
16 19 21 18 20 16 18 17 40 39 40 38 37 35 31 23 19 16 14 10 4 1 7 11 14 15 16 18 17 14 12 10
31 33 34 37 41 41 41 40 40 39 38 37 36 31 22 19 15 16 9 4 3 3 10 18 19 16 19 21 22 22 18 13
32 35 37 39 39 39 37 36 36 34 33 34 34 30 26 21 20 12 7 5 4 5 10 13 17 17 19 21 24 22 24 19
33 33 34 37 37 35 31 36 33 28 25 27 31 31 27 23 21 14 10 8 6 6 5 9 10 13 17 20 19 23 26 23
29 30 31 33 33 32 30 31 28 20 20 22 26 27 26 21 21 17 10 9 9 6 6 7 6 11 13 16 19 19 21 23
29 29 28 29 29 31 27 25 21 19 17 17 18 17 20 21 16 15 15 11 9 6 6 5 6 10 12 13 14 19 18 22
27 29 30 29 28 28 28 26 25 23 21 21 11 13 13 13 13 11 9 8 5 5 6 7 8 11 13 15 16 17 17 17
26 27 26 25 25 26 23 22 23 24 21 17 15 13 12 10 12 12 10 9 7 7 10 10 12 14 17 16 15 15 14 15
Wind_Direction
18 57 345 342 345 306 171 188 175 164 150 145 137 129 119 110 103 94 86 79 74 72 68 60 45 47 65 62 56 49 47 43
330 336 24 12 33 39 150 176 193 161 148 144 141 133 122 111 102 93 85 79 73 66 65 57 36 41 64 61 53 47 46 47
343 19 45 60 48 89 152 147 192 169 156 142 150 136 127 113 103 94 85 77 70 63 53 43 28 35 52 55 45 46 47 41
24 50 63 74 82 88 121 137 193 179 168 169 166 154 140 116 108 97 86 74 64 56 40 19 21 14 24 39 40 47 47 43
31 60 76 87 99 103 112 134 144 175 154 152 164 159 142 121 112 100 87 78 60 37 21 15 5 356 19 52 53 39 33 30
64 79 95 105 108 118 112 121 136 175 173 162 143 149 142 121 113 106 93 84 55 38 17 357 346 2 30 49 48 44 32 34
101 107 114 113 112 120 126 134 131 132 137 136 134 134 130 120 115 110 96 80 48 11 344 328 345 3 7 25 34 30 33 40
110 123 121 125 121 143 138 131 134 136 137 141 140 139 131 126 120 116 106 81 328 308 330 355 2 359 339 347 1 20 23 29
135 134 137 131 136 136 136 149 153 140 141 143 142 143 136 136 130 123 114 86 269 311 313 339 353 338 340 332 354 19 14 28
116 144 142 140 140 144 158 151 191 162 151 147 148 148 144 139 131 129 222 173 108 53 31 2 352 329 324 340 351 13 29 20
116 133 133 145 153 163 207 180 178 160 157 152 151 150 143 146 151 217 193 128 132 111 15 337 330 308 321 335 344 347 20 30
128 131 138 145 187 217 207 210 179 146 142 161 172 174 171 173 165 156 149 140 135 17 333 309 306 319 326 324 328 332 344 354
121 127 132 134 142 145 146 148 169 169 173 171 171 171 169 158 154 154 155 154 152 146 309 303 301 305 311 310 311 314 313 316
158 155 156 158 162 162 173 175 177 177 177 179 178 174 163 164 163 168 166 182 220 276 297 296 298 302 303 308 308 306 310 303
155 157 158 159 166 165 171 165 171 169 172 180 183 180 179 174 177 176 184 193 218 281 298 300 302 306 307 307 308 311 315 315
159 154 156 164 170 163 159 171 171 167 168 175 185 188 188 183 182 177 182 189 206 218 274 301 307 315 312 305 309 313 316 312
155 158 160 166 169 166 167 174 173 167 171 179 187 190 191 187 188 185 188 196 207 234 278 284 275 313 321 316 304 306 315 309
163 166 168 169 173 178 176 176 175 177 179 183 188 189 192 194 193 197 197 198 205 231 233 265 277 306 309 309 305 304 303 306
169 174 178 179 181 182 185 187 187 188 188 189 200 197 198 201 198 213 225 230 242 276 276 284 298 304 309 308 309 308 309 310
176 179 181 182 184 188 188 190 193 196 195 197 205 213 220 224 218 231 249 252 283 299 305 302 307 311 313 316 314 310 311 312